Regional Weather Roundup
Issued by NWS

Home | Current Version | Previous Version | Text Only | Print | Product List | Glossary On
Versions: 1 2 3 4 5 6 7 8 9 10 11 12 13 14 15 16 17 18 19 20 21 22 23 24 25 26 27 28 29 30 31 32 33 34 35 36 37 38 39 40 41 42 43 44 45 46 47 48 49 50
000
ASUS44 KFWD 180015
RWRTX
NORTH TEXAS HOURLY WEATHER ROUNDUP
NATIONAL WEATHER SERVICE FORT WORTH TX
600 PM CST TUE JAN 17 2017

NOTE: "FAIR" INDICATES FEW OR NO CLOUDS BELOW 12,000 FEET WITH NO
SIGNIFICANT WEATHER AND/OR OBSTRUCTIONS TO VISIBILITY.

TXZ118-119-180100-
DALLAS/FORT WORTH METROPLEX

CITY           SKY/WX    TMP DP  RH WIND       PRES   REMARKS
DFW AIRPORT    LGT RAIN  51  40  65 N3        30.13S
6HR MIN TEMP:  49; 6HR MAX TEMP:  51; 6HR PCP: TRACE;

DALLAS LOVE    TSTM      50  43  77 W5        30.16R
6HR MIN TEMP:  49; 6HR MAX TEMP:  52; 6HR PCP:  0.02;

FTW MEACHAM    LGT RAIN  50  39  66 SW10      30.22R
6HR MIN TEMP:  49; 6HR MAX TEMP:  51; 6HR PCP: TRACE;

DAL-EXECUTIVE  LGT RAIN  48  43  82 SW3       30.14R
6HR MIN TEMP:  48; 6HR MAX TEMP:  50; 6HR PCP:  0.02;

FTW-ALLIANCE   CLOUDY    49  39  68 N5        30.13F
6HR MIN TEMP:  48; 6HR MAX TEMP:  51; 6HR PCP:  0.01;

FTW-SPINKS     HVY RAIN  48  41  76 W5        30.22R
ARLINGTON      RAIN      47  42  83 SW9       30.19R
6HR MIN TEMP:  47; 6HR MAX TEMP:  50; 6HR PCP:  0.06;

ADDISON        MOCLDY    50  43  76 E6        30.13F
MESQUITE       TSTM      46  45  93 CALM      30.13R
LANCASTER      CLOUDY    47  42  83 SW3       30.17R
6HR MIN TEMP:  47; 6HR MAX TEMP:  50; 6HR PCP:  0.02;

$$

TXZ091>094-102>105-117-120-121-131>134-180100-
NORTH CENTRAL TEXAS

CITY           SKY/WX    TMP DP  RH WIND       PRES   REMARKS
SHRMAN/DENISON MOCLDY    48  40  72 CALM      30.17S
6HR MIN TEMP:  47; 6HR MAX TEMP:  50;

GAINESVILLE    CLOUDY    48  39  70 SE3       30.16S
6HR MIN TEMP:  46; 6HR MAX TEMP:  51;

BOWIE          LGT RAIN  49  44  84 S6        30.17R
6HR MIN TEMP:  48; 6HR MAX TEMP:  53;

BRIDGEPORT     LGT RAIN  47  44  88 W5        30.20R
6HR MIN TEMP:  47; 6HR MAX TEMP:  51; 6HR PCP:  0.03;

DECATUR        LGT RAIN  67  57  71 CALM      30.16R
6HR MIN TEMP:  64; 6HR MAX TEMP:  70;

DENTON         CLOUDY    48  41  76 NE7       30.13F
6HR MIN TEMP:  48; 6HR MAX TEMP:  50; 6HR PCP: TRACE;

MCKINNEY       CLOUDY    49  41  74 N12       30.10F
6HR MIN TEMP:  49; 6HR MAX TEMP:  50;

BONHAM         CLOUDY    46  39  76 N3        30.16R
GREENVILLE     CLOUDY    48  41  76 N3        30.11F
ROCKWALL       CLOUDY    49  44  85 CALM      30.13R
6HR MIN TEMP:  48; 6HR MAX TEMP:  50;

TERRELL        CLOUDY    49  42  77 CALM      30.13R
6HR MIN TEMP:  49; 6HR MAX TEMP:  51; 6HR PCP:  0.01;

WAXAHACHIE     LGT RAIN  47  45  93 S8        30.20R
6HR MIN TEMP:  46; 6HR MAX TEMP:  49; 6HR PCP:  0.03;

CLEBURNE       LGT RAIN  45  45 100 N10       30.16F WCI  39
GRANBURY       LGT RAIN  47  43  85 CALM      30.17F
6HR MIN TEMP:  47; 6HR MAX TEMP:  50; 6HR PCP:  0.07;

$$

TXZ083>090-098>101-113>116-127>130-139>142-154-155-180100-
WESTERN NORTH TEXAS

CITY           SKY/WX    TMP DP  RH WIND       PRES   REMARKS
WICHITA FALLS  LGT RAIN  45  42  89 SW10      30.17R WCI  40
6HR MIN TEMP:  45; 6HR MAX TEMP:  54; 6HR PCP:  0.05;

WF-KICKAPOO    LGT RAIN  46  43  89 W5        30.17R
6HR MIN TEMP:  46; 6HR MAX TEMP:  53; 6HR PCP:  0.03;

VERNON         CLOUDY    48  37  64 S9        30.17R
6HR MIN TEMP:  33; 6HR MAX TEMP:  53;

ABILENE        LGT RAIN  42  42 100 N8        30.13F FOG     WCI  37
6HR MIN TEMP:  41; 6HR MAX TEMP:  45; 6HR PCP:  0.35;

ABILENE-DYESS  CLOUDY    43  39  87 NE6       30.11F WCI  39
                                      6HR PCP:  0.33;

GRAHAM         LGT RAIN  45  45 100 N6        30.13F
BRECKENRIDGE   DRIZZLE   46  45  97 CALM      30.16R
6HR MIN TEMP:  46; 6HR MAX TEMP:  53; 6HR PCP:  0.04;

RANGER         LGT RAIN  43  43 100 CALM      30.18R
MINERAL WELLS  LGT RAIN  47  44  90 E5        30.15R
6HR MIN TEMP:  46; 6HR MAX TEMP:  51; 6HR PCP:  0.09;

STEPHENVILLE   CLOUDY    46  41  83 NW3       30.17R
6HR MIN TEMP:  46; 6HR MAX TEMP:  49;

COMANCHE       RAIN      44  44 100 N8        30.16R WCI  40
6HR MIN TEMP:  44; 6HR MAX TEMP:  48; 6HR PCP:  0.01;

BROWNWOOD      CLOUDY    45  45 100 NE5       30.13F
COLEMAN        LGT RAIN  45  43  93 N8        30.14R
$$

TXZ143>147-156>162-174-175-180100-
CENTRAL TEXAS

CITY           SKY/WX    TMP DP  RH WIND       PRES   REMARKS
WACO           CLOUDY    48  45  89 N7        30.13R
6HR MIN TEMP:  47; 6HR MAX TEMP:  49; 6HR PCP:  0.20;

WACO-TSTC      LGT RAIN  48  45  87 N6        30.13R
WACO-MCGREGOR  CLOUDY    47  45  93 N9        30.12R
6HR MIN TEMP:  46; 6HR MAX TEMP:  48; 6HR PCP:  0.19;

CORSICANA      CLOUDY    52  45  77 CALM      30.14R
6HR MIN TEMP:  50; 6HR MAX TEMP:  53; 6HR PCP:  0.03;

MEXIA          CLOUDY    48  45  89 N5        30.11S
6HR MIN TEMP:  47; 6HR MAX TEMP:  52; 6HR PCP:  0.05;

HEARNE         CLOUDY    51  51  99 N3        30.10S
6HR MIN TEMP:  51; 6HR MAX TEMP:  53; 6HR PCP:  0.17;

CAMERON        DRIZZLE   51  49  90 NE9       30.09S
6HR MIN TEMP:  50; 6HR MAX TEMP:  52;

TEMPLE         CLOUDY    48  46  93 N8        30.11S
6HR MIN TEMP:  46; 6HR MAX TEMP:  49; 6HR PCP:  0.01;

KILLEEN        CLOUDY    45  45 100 N10       30.09R WCI  39
6HR MIN TEMP:  45; 6HR MAX TEMP:  47; 6HR PCP:  0.12;

KILLEEN-SKYLRK CLOUDY    47  44  90 N10       30.11R
6HR MIN TEMP:  45; 6HR MAX TEMP:  48; 6HR PCP:  0.01;

FORT HOOD      CLOUDY    46  45  93 N6        30.11R
                                      6HR PCP:  0.17;

GATESVILLE     CLOUDY    46  45  93 N5        30.14R
HAMILTON       DRIZZLE   46  45  99 N6        30.14R
6HR MIN TEMP:  46; 6HR MAX TEMP:  49; 6HR PCP:  0.04;

LAMPASAS       CLOUDY    45  44  95 N5        30.10R
6HR MIN TEMP:  45; 6HR MAX TEMP:  50; 6HR PCP:  0.07;

$$

TXZ095>097-106>112-122>126-135>138-148>153-164>167-180100-
EAST TEXAS

CITY           SKY/WX    TMP DP  RH WIND       PRES   REMARKS
PARIS          CLOUDY    48  39  71 N5        30.16S
6HR MIN TEMP:  48; 6HR MAX TEMP:  52;

SULPHUR SPRNGS LGT RAIN  50  42  73 N10       30.13F
6HR MIN TEMP:  48; 6HR MAX TEMP:  51;

MOUNT PLEASANT CLOUDY    49  42  77 CALM      30.16F
6HR MIN TEMP:  49; 6HR MAX TEMP:  53; 6HR PCP:  0.02;

GILMER         CLOUDY    48  46  91 CALM      30.13S
6HR MIN TEMP:  48; 6HR MAX TEMP:  51; 6HR PCP:  0.02;

MINEOLA        CLOUDY    48  46  93 CALM      30.14R
TYLER          CLOUDY    50  48  93 NE5       30.12F
6HR MIN TEMP:  50; 6HR MAX TEMP:  53; 6HR PCP:  0.03;

LONGVIEW       CLOUDY    50  49  96 SE5       30.13R
6HR MIN TEMP:  50; 6HR MAX TEMP:  54; 6HR PCP:  0.24;

MARSHALL       CLOUDY    50  48  92 CALM      30.17R
6HR MIN TEMP:  50; 6HR MAX TEMP:  53; 6HR PCP:  0.08;

ATHENS         CLOUDY    46  46 100 E5        30.11S
PALESTINE      LGT SNOW  50  49  97 NE5       30.14R
JACKSONVILLE   CLOUDY    50  50 100 CALM      30.13R
HENDERSON      CLOUDY    50  50 100 E6        30.14R
6HR MIN TEMP:  49; 6HR MAX TEMP:  53; 6HR PCP:  0.25;

CENTER         CLOUDY    54  53  96 N5        30.15S
6HR MIN TEMP:  52; 6HR MAX TEMP:  55; 6HR PCP:  0.50;

NACOGDOCHES    CLOUDY    54  48  82 NE5       30.11R
6HR MIN TEMP:  52; 6HR MAX TEMP:  54;

LUFKIN         CLOUDY    54  53  97 N7        30.11S
6HR MIN TEMP:  52; 6HR MAX TEMP:  54; 6HR PCP:  0.07;

$$

SUPPLEMENTAL OBSERVATIONS (CENTRAL)

CITY           SKY/WX    TMP DP  RH WIND       PRES   REMARKS
DENISON DAM      N/A     48  36  61 CALM        N/A
CADDO GRASSLND   N/A     46  41  81 NW2         N/A
PAT MAYSE LAKE   N/A     46  43  87 CALM        N/A
GREENVILLE       N/A     48  41  76 NE9         N/A
CEDAR HILL       N/A     46  41  81 SW5         N/A
ATHENS           N/A     48  45  87 NE3         N/A
LAKE LIMESTONE   N/A     50  46  87 NE7         N/A
MCGREGOR         N/A     46  43  87 NE9         N/A
TEMPLE           N/A     48  45  87 N9          N/A
$$

SUPPLEMENTAL OBSERVATIONS (WEST)

CITY           SKY/WX    TMP DP  RH WIND       PRES   REMARKS
MILLERS CREEK    N/A     45  43  93 SW2



USA.gov is the U.S. government's official web portal to all federal, state and local government web resources and services.